Location: Poughquag
(41.6090°N, 73.6820°W)
Time: 14:30:41
(UTC-04:00)

Explorer 11/Cluster Stage 4 - Pass Details

Date: 01 June 2020
Orbit: 467 x 1259 km, 28.8° (Epoch: 05 July)

Event Time Altitude Azimuth Distance (km) Brightness Sun altitude
Rises 06:45:09 0° 230° (SW) 3,444 9.3 13.2°
Reaches altitude 10° 06:48:01 10° 217° (SW) 2,643 8.9 13.7°
Maximum altitude 06:53:07 24° 165° (SSE) 2,003 8.8 14.6°
Drops below altitude 10° 06:58:57 10° 115° (ESE) 3,058 10.5 15.6°
Sets 07:02:32 0° 103° (ESE) 4,109 11.4 16.3°
